TimeCDT,TemperatureF,Dew PointF,Humidity,Sea Level PressureIn,VisibilityMPH,Wind Direction,Wind SpeedMPH,Gust SpeedMPH,PrecipitationIn,Events,Conditions,WindDirDegrees,DateUTC
12:53 AM,66.0,64.9,96,30.01,5.0,Calm,Calm,-,N/A,,Partly Cloudy,0,2013-07-05 05:53:00
1:53 AM,69.1,66.9,93,30.01,8.0,NW,3.5,-,N/A,,Mostly Cloudy,320,2013-07-05 06:53:00
2:53 AM,68.0,66.0,93,30.00,8.0,Calm,Calm,-,N/A,,Scattered Clouds,0,2013-07-05 07:53:00
3:53 AM,66.9,64.9,93,29.99,8.0,Calm,Calm,-,N/A,,Clear,0,2013-07-05 08:53:00
4:53 AM,66.0,64.9,96,30.00,6.0,Calm,Calm,-,N/A,,Clear,0,2013-07-05 09:53:00
5:53 AM,64.9,64.0,97,30.01,4.0,Calm,Calm,-,N/A,,Clear,0,2013-07-05 10:53:00
6:04 AM,66.2,64.4,94,30.00,1.8,Calm,Calm,-,N/A,,Clear,0,2013-07-05 11:04:00
6:14 AM,64.4,64.4,100,30.00,2.5,Calm,Calm,-,N/A,,Clear,0,2013-07-05 11:14:00
6:50 AM,66.2,66.2,100,30.00,4.0,WNW,3.5,-,N/A,,Clear,300,2013-07-05 11:50:00
6:53 AM,68.0,66.0,93,30.02,4.0,NW,3.5,-,N/A,,Clear,310,2013-07-05 11:53:00
7:53 AM,75.9,71.1,85,30.02,8.0,Calm,Calm,-,N/A,,Clear,0,2013-07-05 12:53:00
8:53 AM,80.1,72.0,76,30.03,10.0,Calm,Calm,-,N/A,,Clear,0,2013-07-05 13:53:00
9:53 AM,84.9,73.0,67,30.03,10.0,ENE,5.8,-,N/A,,Clear,60,2013-07-05 14:53:00
10:53 AM,87.1,71.1,59,30.04,10.0,NNE,6.9,-,N/A,,Clear,20,2013-07-05 15:53:00
11:53 AM,88.0,69.1,53,30.04,10.0,NNE,8.1,-,N/A,,Partly Cloudy,30,2013-07-05 16:53:00
12:05 PM,86.0,68.0,55,30.02,10.0,NNE,9.2,-,N/A,Thunderstorm,Partly Cloudy,30,2013-07-05 17:05:00
12:45 PM,80.6,71.6,74,30.03,10.0,SSE,10.4,-,N/A,,Mostly Cloudy,160,2013-07-05 17:45:00
12:53 PM,81.0,70.0,69,30.04,10.0,ESE,8.1,-,N/A,,Scattered Clouds,120,2013-07-05 17:53:00
1:53 PM,86.0,72.0,63,30.00,10.0,NE,3.5,-,0.00,,Clear,40,2013-07-05 18:53:00
2:53 PM,80.1,70.0,71,30.02,10.0,ESE,17.3,24.2,N/A,,Partly Cloudy,110,2013-07-05 19:53:00
3:07 PM,80.6,71.6,74,30.01,10.0,East,16.1,20.7,N/A,Thunderstorm,Partly Cloudy,100,2013-07-05 20:07:00
3:22 PM,80.6,71.6,74,30.00,10.0,East,18.4,23.0,N/A,,Clear,100,2013-07-05 20:22:00
3:53 PM,82.0,70.0,67,30.01,10.0,ENE,9.2,-,N/A,,Scattered Clouds,60,2013-07-05 20:53:00
4:53 PM,81.0,70.0,69,30.00,10.0,ESE,8.1,-,N/A,,Clear,120,2013-07-05 21:53:00
5:53 PM,80.1,71.1,74,29.99,10.0,SE,11.5,-,N/A,,Clear,130,2013-07-05 22:53:00
6:53 PM,79.0,70.0,74,29.97,10.0,SSE,4.6,-,N/A,,Clear,150,2013-07-05 23:53:00
7:53 PM,75.9,69.1,79,29.99,10.0,SSE,5.8,-,N/A,,Clear,160,2013-07-06 00:53:00
8:53 PM,73.9,70.0,87,30.00,10.0,ESE,4.6,-,N/A,,Clear,120,2013-07-06 01:53:00
9:53 PM,73.0,70.0,90,30.01,10.0,SE,8.1,-,N/A,,Clear,130,2013-07-06 02:53:00
10:53 PM,73.0,70.0,90,30.03,10.0,SE,5.8,-,N/A,,Clear,140,2013-07-06 03:53:00
11:53 PM,72.0,70.0,93,30.03,10.0,SE,5.8,-,N/A,,Clear,130,2013-07-06 04:53:00